Regional Weather Roundup
Issued by NWS

Home | Current Version | Previous Version | Text Only | Print | Product List | Glossary Off
Versions: 1 2 3 4 5 6 7 8 9 10 11 12 13 14 15 16 17 18 19 20 21 22 23 24 25 26 27 28 29 30 31 32 33 34 35 36 37 38 39 40 41 42 43 44 45 46 47 48 49 50

000
ASUS43 KDMX 010407
RWRIA

WEATHER ROUNDUP FOR IOWA
NATIONAL WEATHER SERVICE DES MOINES IA
1100 PM CDT MON AUG 31 2015

NOTE: "FAIR" INDICATES FEW OR NO CLOUDS BELOW 12,000 FEET WITH NO
SIGNIFICANT WEATHER AND/OR OBSTRUCTIONS TO VISIBILITY.

* - THESE STATIONS ARE NOT NWS STATIONS...THUS NOT UNDER NWS
QUALITY CONTROL.  THEY ALSO DO NOT REPORT WEATHER SUCH
AS PRECIPITATION OR FOG.

IAZ001>003-012>014-020>022-031>034-043>046-010500-
   NORTHWEST IOWA

CITY           SKY/WX    TMP DP  RH WIND       PRES   REMARKS
CARROLL *      CLOUDY    66  66 100 CALM      29.95S
CHEROKEE *     CLEAR     68  68 100 S3        29.93F
DENISON *      CLOUDY    70  66  88 SE3       29.92S
LE MARS *      CLEAR     70  68  94 S5        29.93R
ORANGE CITY *  CLEAR     72  68  88 S5        29.93S
SHELDON *      PTCLDY    70  68  94 S5        29.92S
SIOUX CITY     CLEAR     72  67  84 SE8       29.91R
SPENCER        CLEAR     69  64  84 S7        29.94R
STORM LAKE *   CLEAR     66  66 100 S6        29.96S
$$

IAZ055>058-069>071-079>083-090>094-010500-
   SOUTHWEST IOWA

CITY           SKY/WX    TMP DP  RH WIND       PRES   REMARKS
ATLANTIC *     CLOUDY    68  68 100 CALM      29.95S
AUDUBON *      FOG       64  61  88 CALM      29.97S VSB 1/4
CLARINDA *     CLEAR     70  70 100 CALM      29.96F
COUNCIL BLFS * CLEAR     73  68  83 SE8       29.94S
CRESTON *      CLEAR     72  68  88 S7        29.99S
LAMONI         CLEAR     75  69  81 S6        29.98S
RED OAK *      CLEAR     72  68  88 CALM      29.95S
SHENANDOAH *   CLEAR     73  70  88 CALM      29.94F
$$

IAZ047>049-059>061-072>074-084-010500-
   CENTRAL IOWA

CITY           SKY/WX    TMP DP  RH WIND       PRES   REMARKS
AMES           CLEAR     69  68  96 CALM      29.95S FOG
ANKENY *       CLEAR     70  70 100 CALM      29.95S FOG
CHARITON *     CLEAR     72  70  94 S6        29.97F
DES MOINES     PTCLDY    75  70  84 S6        29.95S
GRINNELL*      CLEAR     73  68  83 SE6       29.98S
KNOXVILLE *    CLEAR     73  70  88 S6        29.96S
MARSHALLTOWN   CLEAR     72  70  93 SE5       29.96S
PELLA *        CLEAR     73  73 100 S5        29.98S
PERRY *          N/A     70  69  98 S6        29.96S FOG
$$

IAZ004>006-015-016-023>025-035-036-010500-
   NORTH CENTRAL IOWA

CITY           SKY/WX    TMP DP  RH WIND       PRES   REMARKS
ALGONA *       CLOUDY    68  66  94 S7        29.95S FOG
CLARION *      FOG       68  66  94 S6        29.96S VSB 1
ESTHERVILLE    CLEAR     64  64 100 S6        29.93S
FORT DODGE *   CLEAR     70  64  83 SE3       29.96S
MASON CITY     PTCLDY    69  69 100 S5        29.97S FOG
FOREST CITY *  CLEAR     64  64 100 SE5       29.96S FOG
IOWA FALLS *     N/A     72  70  94 SW3       29.97S
$$

IAZ007>011-017>019-026>030-037>042-050>054-066-010500-
   NORTHEAST IOWA

CITY           SKY/WX    TMP DP  RH WIND       PRES   REMARKS
CEDAR RAPIDS   PTCLDY    75  73  93 S5        29.97S
CHARLES CITY *   N/A     73  73 100 S6        29.97S
CLINTON *      CLEAR     75  72  88 SE8       30.02S
DECORAH *      MOCLDY    75  72  88 S6        29.97F
DUBUQUE        CLEAR     73  70  90 SE8       30.01S
MONTICELLO *   PTCLDY    73  72  94 SE5       29.98F
OELWEIN *      PTCLDY    73  72  94 SE6       29.98  FOG
WATERLOO       PTCLDY    75  72  90 S6        29.95S
$$

IAZ064-065-067-068-078-010500-
   EAST CENTRAL IOWA

CITY           SKY/WX    TMP DP  RH WIND       PRES   REMARKS
DAVENPORT      CLEAR     74  71  91 SE7       30.00S
IOWA CITY      PTCLDY    74  71  91 SE3       29.98S
MT. PLEASANT * CLEAR     75  70  83 S6        29.99R
MUSCATINE *    CLEAR     73  70  88 CALM      29.98S
QUAD CITIES    PTCLDY    76  71  85 S6        29.99S
$$

IAZ062-063-075>077-085>089-095>099-010500-
   SOUTHEAST IOWA

CITY           SKY/WX    TMP DP  RH WIND       PRES   REMARKS
BURLINGTON     CLEAR     77  73  87 S9        29.99S
FAIRFIELD *    CLEAR     75  70  83 S6        29.98S
FORT MADISON * CLEAR     75  73  94 S7        30.00S
KEOKUK *       CLEAR     77  72  83 SE6       29.99S
OSKALOOSA *      N/A     70  68  94 S5        29.98S
CENTERVILLE *  CLEAR     70  68  94 S3        30.00S
OTTUMWA        CLEAR     72  71  97 S6        29.96S
WASHINGTON *     N/A    N/A N/A N/A MISG        N/A
$$

ABBREVIATIONS USED IN REMARKS
   TC - TEMPERATURES IN CELSIUS
  WCI - WIND CHILL INDEX
   HX - HEAT INDEX
  VSB - VISIBILITY
$$



USA.gov is the U.S. government's official web portal to all federal, state and local government web resources and services.